GFSNW_prec_radar_255.txt.gz
Reflectivity
-20 -20 -20 -20 -20 -20 -20 -20 4 2 -20 -15 14 -18 -19 -20 -20 -20 -20 -20 -20 -20 -20 -20 -20 -14 -20 -20 -20 -20 -20 -20 -20 -20 -20 -20 -20 -20 -20 -20 -20 -20 -20 -20
-20 -20 -20 -20 -20 -20 -20 -20 -20 3 -12 -0 1 -20 -20 -20 -20 -20 -20 -20 -20 -20 -20 -20 -20 -20 -20 -20 -20 -20 -20 -14 -20 -20 -9 -20 -20 -20 -20 -20 -20 -20 -20 -20
-20 -20 -20 -20 -20 -20 -20 -20 2 -5 14 -20 -2 -20 -20 -20 -20 -20 -20 -20 -20 -20 -20 -20 -20 -10 -20 -20 -20 -20 -20 -20 -20 -20 -13 -20 -20 -20 -1 -20 -20 -20 -20 -20
-20 -20 -20 -20 -20 -20 -20 -20 -20 -20 -20 -20 -20 -20 -20 -20 -20 -20 -20 -20 -20 -20 -3 -5 -18 -20 -13 -3 -20 -8 0 -15 -20 -20 -20 -20 -20 -20 -14 -19 -20 -20 -20 -20
-20 -20 -20 -20 -20 -20 -20 -18 -20 -20 -20 -20 -20 -20 -20 -20 -20 -20 -20 -20 -20 -20 0 9 13 17 5 -8 -19 -20 -20 -20 -20 -20 -20 -20 -20 -20 -20 -20 -20 -20 -20 -20
-14 -20 -20 -20 -20 -20 -20 -20 -20 -20 -20 -10 -20 -20 -20 -20 -20 -20 -20 -20 -20 -20 -20 -19 -12 -20 -20 -20 -20 -20 -20 -20 -20 -20 -20 -20 -20 -20 -20 -20 -20 -20 -20 -20
-3 -20 -20 -15 -20 -20 -20 -20 -20 -20 -20 -20 -14 -20 -20 -20 -20 -20 -20 -20 -20 -20 -20 -20 -20 -20 -20 -20 -20 -20 -20 -20 -20 -20 -20 -20 -20 -20 -20 -20 -20 -20 -20 -20
10 -17 -20 -8 -20 -20 -20 -20 -20 -20 -20 -20 -20 -20 -20 -20 -20 -20 -19 -20 -20 -20 -20 -13 20 -16 -20 -20 -20 -20 -20 -20 -20 -20 -19 -20 -20 -20 -20 -20 -20 -20 -20 -20
15 -6 -20 -20 -20 -20 -20 -20 -20 -20 -20 -20 -20 -17 -20 -20 -20 -20 -20 -5 10 -20 -20 -20 -18 -20 -20 -20 -20 -20 -20 -20 -15 -20 -7 -13 -20 -20 -20 -20 -20 -20 -20 -20
-3 -20 -20 -20 -20 -20 -20 -20 -20 -20 -20 -20 -20 -20 -7 -20 -20 -20 -20 -20 -20 -20 -13 25 11 -20 -20 -20 -18 -20 -20 -20 -2 2 -7 -17 -20 -20 -20 -20 -20 -20 -20 -20
6 -8 -19 -20 -20 -20 -20 -20 -20 -20 -20 -20 -20 -20 -20 -10 -19 -2 -20 1 -20 -7 13 -4 -10 -20 -20 -20 -14 -20 -20 -20 -15 -8 8 1 -20 -20 -20 -20 -20 -20 -20 -20
6 -19 -20 -20 -20 -20 -20 -14 -20 -20 -20 -20 -20 -20 -20 -20 -20 4 -13 -20 -20 -20 -20 -20 -20 -20 -20 -20 -20 -20 -20 -20 -20 -20 -20 -20 -20 -20 -20 -20 -20 -20 -20 -20
21 16 6 -20 -20 -20 -20 -14 -13 -20 -14 -18 -20 -19 -20 -20 -20 -20 -20 -20 -17 -20 -20 -20 -13 -20 -20 -20 -20 -20 -20 -20 -20 -20 -20 -20 -20 -20 -20 -20 -20 -20 -20 -20
-19 -16 -19 -20 -20 -20 -20 -20 -13 -14 -20 -4 -5 -20 -20 -20 -6 8 -20 -20 -3 11 -17 11 -10 -20 -20 -20 -20 -20 -20 -20 -20 -20 -20 -20 -20 -20 -20 -20 -20 -20 -20 -20
-20 -20 -20 -20 19 -3 -20 -4 -20 -19 -17 -18 -20 -20 -16 -20 -20 16 -15 19 15 20 19 -4 -7 -20 -20 -20 -20 -20 -20 -20 -20 -20 -20 -20 -20 -20 -20 -20 -20 -20 -20 -20
-20 -20 -20 -20 -20 4 11 -13 -20 17 -20 -20 -20 -20 -20 -20 -13 -20 -13 5 -14 22 28 15 19 7 -20 -20 -20 -20 -20 -20 -20 -20 -17 -20 -20 -20 -20 -20 -20 -20 -20 -20
-9 1 -20 -20 -20 -14 -9 -20 -20 -20 -20 -20 -14 -20 -20 -3 -20 -20 -20 -20 -20 -19 -15 -8 -20 -20 -20 -20 -20 -20 -20 -20 -20 -19 -19 -20 -20 -20 -20 -20 -20 -20 -20 -20
-0 0 2 16 20 -20 18 -20 -20 -20 -20 -16 14 -4 -20 -20 -20 -20 -20 -16 -18 -18 -20 -20 -20 -20 -20 -20 -20 -20 -20 -20 -20 6 -10 -19 -20 -20 -20 -20 -20 -20 -20 -20
21 17 15 24 24 16 -19 13 -20 -20 -6 -20 -17 8 -20 -20 -20 -3 -20 -20 -18 -20 -20 -20 -20 -20 -20 -20 -20 -20 -20 -19 -0 -20 -20 -20 -20 -20 -20 -20 -20 -20 -20 -20
27 36 33 27 24 -19 -8 25 24 30 -8 -20 -20 -20 -20 -15 9 9 27 32 21 8 -19 -15 -18 -20 -20 -20 -20 -20 -20 -20 -20 -20 -20 -20 -20 -20 -20 -20 -20 -20 -20 -20
28 33 31 11 2 -6 11 12 -12 10 12 17 -18 -20 -20 -20 -17 -6 11 18 33 5 -20 -20 -20 -20 -20 -20 -20 -20 -20 -20 -20 -20 -20 -20 -20 -20 -20 -20 -20 -20 -20 -20
27 31 21 17 28 26 24 14 -5 -8 -19 -20 -20 -20 -20 -20 -20 -16 -15 -4 6 -15 -20 -20 -20 -20 -20 -20 -20 -20 -20 -20 -20 -20 -20 -20 -20 -20 -20 -20 -20 -20 -20 -20
22 21 23 28 22 22 5 16 8 -20 -20 -20 -20 1 10 21 16 -20 -20 -15 13 -20 -20 -18 -20 -20 -20 -20 -20 -20 -20 -20 -20 -20 -20 -20 -20 -20 -20 -20 -20 -20 -20 -20
25 25 23 7 14 -6 -20 -20 -20 -20 -20 -20 -20 -20 -20 7 -20 -20 12 -20 -19 -20 -20 -20 -20 -20 -20 -20 -20 -20 -20 -20 -20 -20 -20 -20 -20 -20 -20 -20 -20 -20 -20 -20
18 12 23 -20 -20 -20 -20 -20 -20 -20 -20 -20 -20 -10 -20 -7 -6 -1 -8 -6 -13 -20 -20 -20 -20 -20 -20 -20 -20 -20 -20 -20 -20 -20 -20 -20 -20 -20 -20 -20 -20 -20 -20 -20
13 -7 -20 -20 -20 -20 -8 -20 -20 -20 -20 -19 4 -10 14 5 -10 -17 -20 -20 -20 -20 -15 -20 -20 -20 -20 -20 -20 -20 -20 -20 -20 -20 -20 -20 -20 -20 -20 -20 -20 -20 -20 -20
5 -18 -20 -20 -20 -20 -20 -20 -20 -20 28 -9 -3 -20 -20 -20 -9 1 -20 -20 -20 -20 -20 -20 -20 -20 -20 -20 -20 -20 -20 -20 -20 -20 -20 -20 -20 -20 -20 -20 -20 -20 -20 -20

GFSNW_prec_radar_258.txt.gz
Reflectivity
-20 -20 -20 -20 -20 -16 -20 -18 6 3 -19 -3 2 6 -18 -20 -20 -20 -20 -20 -20 -20 -20 -20 -20 -20 -20 -20 -20 -20 -20 -20 -20 -20 -20 -20 -20 -20 -20 -20 -20 -20 -20 -20
-20 -20 -20 -20 -20 -20 -20 -20 -20 -8 -20 -0 6 3 -20 -20 -20 -20 -20 -20 -20 -20 -20 -20 -20 -20 -20 -20 -20 -20 -20 -20 -20 -20 -20 -20 -20 -20 -20 -20 -20 -20 -20 -20
-20 -20 -20 -20 -20 -20 -20 -20 1 -2 -0 -20 -8 5 -20 -20 -20 -20 -20 -20 -20 -20 -20 -20 -19 -20 -20 -20 -20 -20 -20 -20 -20 -20 -20 -20 -20 -20 -20 -20 -20 -20 -20 -20
7 -20 -20 -20 -20 -20 -20 -20 -20 -16 14 14 10 -6 -20 -20 -20 -20 -20 -20 -20 -20 -20 -20 -20 -20 -19 -20 -20 -20 -20 -20 -20 -20 -20 -20 -20 -20 -20 -20 -20 -20 -19 -20
-20 -20 -20 -20 -20 -20 -20 -20 -20 -20 -20 10 13 12 -20 -20 -20 -20 -20 -20 -20 -20 -20 -20 -20 -20 -20 -20 -20 -20 -20 -20 -20 -20 -20 -20 -20 -20 -20 -20 -20 -20 -20 -20
18 -18 -20 -20 -20 -20 -20 -20 -20 -20 -20 -20 12 -13 -18 -20 -20 -20 -20 -20 -20 -20 -20 -20 -20 -20 -20 -20 -20 -20 -20 -20 -20 -20 -20 -20 -20 -20 -20 -20 -20 -20 -20 -20
7 13 3 -20 -20 -20 -20 -20 -20 -20 -20 -20 -20 -19 -20 -20 -20 -20 -20 -20 -20 -20 -20 -20 -20 -20 -20 -20 -20 -20 -20 -20 -20 -20 -20 -20 -20 -20 -20 -20 -20 -20 -20 -20
20 2 16 -20 -20 -20 -20 -14 -20 -20 -20 -20 -10 -20 -20 -20 -20 -20 -20 -20 -20 -20 -20 -20 -20 -11 -20 -20 -20 -20 -20 -20 -20 -20 -20 -20 -20 -20 -20 -20 -20 -20 -20 -20
11 25 16 -20 -16 -10 -20 -18 -9 -20 -20 -20 -20 -20 -20 -20 -20 -20 -20 -20 -20 -20 -20 -20 -14 2 -20 -20 -20 -20 -20 -20 -20 -20 -20 -20 -20 -20 -20 -20 -20 -20 -20 -20
22 22 26 -13 -5 -14 -20 -20 11 -12 -15 -20 -20 -20 -20 -20 -20 -20 -19 -6 -16 -20 -19 -15 -15 -1 -20 -20 -20 -20 -20 -20 -11 -20 -8 -20 -20 -20 -20 -20 -20 -20 -20 -20
18 23 1 14 15 11 -20 -20 -20 -14 -7 -20 -20 -20 -20 -20 -20 -20 -20 1 -12 13 17 -11 -18 -19 -20 -20 -20 -20 -20 -20 -20 -19 -10 6 -20 -20 -20 -20 -20 -20 -20 -20
29 25 21 27 30 24 9 -17 -20 -20 -20 -8 -20 -20 -20 -20 -20 -20 -20 -20 -20 -19 -4 -19 -19 -20 -20 -20 -20 -20 -8 -20 -20 -20 -20 -20 -20 -20 -20 -20 -20 -20 -20 -20
33 22 29 27 11 -20 -8 -20 -20 -20 -19 -2 -20 -20 -20 -20 -19 -20 -14 -19 -19 -20 -20 -20 2 -5 -20 -20 -20 -20 -20 -20 -20 -20 -20 -20 -20 -20 -20 -20 -20 -20 -20 -20
34 31 25 13 -4 -20 -20 -20 -20 -20 2 18 -10 -20 -20 -20 -20 -12 -7 -13 -19 -20 -20 -20 -20 -20 -20 -20 -20 -20 -20 -20 -20 -20 -20 -20 -20 -20 -20 -20 -20 -20 -20 -20
37 35 31 23 18 -17 -20 -20 -20 -20 -6 7 -13 -18 -20 -20 -20 -19 -0 21 26 -19 -20 -20 -16 -17 -20 -20 -20 -20 -20 -20 -20 -20 -20 -20 -20 -20 -20 -20 -20 -20 -20 -20
34 17 20 24 24 7 -20 -20 -20 -20 -20 -20 -20 -20 -2 -20 -20 -20 -11 5 -16 -11 33 21 28 24 -19 -20 -20 -20 -20 -20 -20 -20 -20 -20 -20 -20 -20 -20 -20 -20 -20 -20
28 27 25 27 16 -14 -20 -20 -20 -20 -20 -20 -20 -16 -15 -18 -20 -20 -20 -19 -7 7 0 -9 -16 5 -12 -1 -19 -20 -20 -20 -20 -20 -20 -20 -20 -20 -20 -20 -20 -20 -20 -20
20 16 24 19 -3 -6 -0 -10 -20 -20 -20 -20 -20 -20 -20 -20 -20 -20 -20 -20 -20 -5 -12 -20 -20 -10 2 -19 -20 -20 -20 -20 -20 -20 -20 -20 -20 -20 -20 -20 -20 -20 -20 -20
16 19 17 16 -18 0 7 -4 -20 -20 -20 -20 -20 -20 -20 -20 -20 -20 -20 -20 -20 -20 -20 -20 -20 -20 -20 -20 -20 -20 -20 -20 -20 4 -2 -20 -20 -20 -20 -20 -20 -20 -20 -20
23 23 16 13 10 -20 -20 17 -20 -20 -20 -20 -20 -20 -20 -18 -20 6 -6 -18 -20 -20 -20 -20 -20 -20 -20 -20 -20 -20 -20 -20 5 10 5 -10 -20 -20 -20 -20 -20 -20 -20 -20
26 27 27 3 1 -13 21 17 -20 -18 -20 -19 -20 -20 -20 -20 -20 12 -1 18 25 -16 -20 -20 -20 -20 -20 -20 -20 -20 -20 -12 -12 -20 -20 -20 -20 -20 -20 -20 -20 -20 -20 -20
26 16 24 28 24 23 17 1 -20 -8 -20 -20 -20 -20 -20 -20 -20 -14 18 -12 8 -19 -20 -20 -20 -20 -20 -20 -10 6 -17 -20 -20 -20 -20 -20 -20 -20 -20 -20 -20 -20 -20 -20
22 31 29 25 20 14 4 10 -20 -20 -20 -20 -20 -20 -20 17 -20 -12 -19 -0 -20 -20 -20 -17 -20 -20 -18 13 13 1 -20 -20 -20 -20 -20 -20 -20 -20 -20 -20 -20 -20 -20 -20
19 9 25 1 17 12 7 -20 -20 -20 -20 -20 -20 -20 -3 -20 -3 9 -12 -20 -20 -20 -20 -20 -20 -20 0 11 4 -5 -20 -20 -20 -20 -20 -20 -20 -20 -20 -20 -20 -20 -20 -20
20 13 9 2 -7 -19 -20 -20 -20 -20 -20 -20 -20 -20 -20 -10 -4 -20 -15 -17 -20 -20 -20 -16 -14 -15 -20 -20 -20 -20 -20 -20 -20 -20 -20 -20 -20 -20 -20 -20 -20 -20 -20 -20
17 18 19 -20 -20 -20 -20 -20 -20 -20 -20 -20 5 -4 20 11 13 -17 -20 -20 -20 -20 -10 -6 -19 -20 -20 -20 -20 -20 -20 -20 -20 -20 -20 -20 -20 -20 -20 -20 -20 -20 -20 -20
1 -19 -19 -5 -20 -20 -20 -20 -20 -20 -20 -20 -20 7 21 -14 -7 -20 -20 -20 -18 -12 -13 -20 -20 -20 -20 -20 -20 -20 -20 -20 -20 -20 -20 -20 -20 -20 -20 -20 -20 -20 -20 -20

GFSNW_prec_radar_261.txt.gz
Reflectivity
7 -1 16 23 20 21 29 9 22 32 21 -9 -8 -20 -20 -20 -20 -20 -20 -20 -20 -20 -20 -20 -20 -20 -20 -20 -20 -20 -20 -20 -20 -20 -20 -20 -20 -20 -20 -20 -20 -20 -20 -20
23 1 18 7 28 23 27 28 28 11 23 8 17 3 -10 -20 -20 -20 -20 -20 -20 -20 -20 -20 -20 -20 -20 -20 -20 -20 -20 -20 -20 -20 -20 -20 -20 -20 -20 -20 -20 -20 -20 -20
-0 20 29 24 38 28 22 26 29 15 23 3 -8 2 7 -16 -20 -20 -20 -20 -20 -20 -20 -20 -20 -20 -20 -20 -20 -20 -20 -20 -20 -20 -20 -20 -20 -20 -20 -20 -20 -20 -20 -20
-7 -0 3 19 1 23 31 22 15 -18 -12 -5 -20 -20 -20 -20 -20 -20 -20 -20 -20 -20 -20 -20 -20 -20 -20 -20 -20 -20 -20 -20 -20 -20 -20 -20 -20 -20 -20 -20 -20 -20 -20 -20
17 -20 -20 -20 -3 7 15 -18 15 -20 -20 -16 1 -20 -20 -20 -20 -20 -20 -20 -20 -20 -20 -20 -20 -20 -20 -20 -20 -20 -20 -20 -20 -20 -20 -20 -20 -20 -20 -20 -20 -20 -20 -20
17 -8 -20 -20 -20 -20 -20 -20 -20 -20 -20 -18 8 -20 -20 -20 -20 -20 -20 -20 -20 -20 -20 -20 -20 -20 -20 -20 -20 -8 -3 -20 -20 -20 -20 -20 -20 -20 -20 -20 -20 -20 -20 -20
19 -12 -9 -20 -20 -20 -20 -20 -20 -20 -20 -18 -16 -7 -20 -20 -20 -20 -20 -20 -20 -20 -20 -20 -20 -20 -20 -20 -20 -20 -20 -20 -20 -20 -20 -20 -20 -20 -20 -20 -20 -20 -20 -20
15 17 -10 -20 -20 -20 -20 -20 -20 -20 -20 -20 -20 -20 -16 -11 -20 -20 -20 -20 -20 -20 -20 -20 -20 -14 -8 -5 -20 -20 -20 -20 -20 -20 -20 -20 -20 -20 -20 -20 -20 -20 -20 -20
1 18 -18 -20 -18 -20 -20 -20 -20 -20 -20 -20 -20 -20 -20 -20 -17 -20 -20 -20 -20 -20 -20 -20 5 -5 -16 3 -20 -20 -20 -20 -20 -20 -20 -20 -20 -20 -20 -20 -20 -20 -20 -20
11 27 18 -16 10 -12 -20 -20 -20 -9 -20 -20 -20 -20 -20 -20 -20 -20 -20 -20 -20 -20 -20 -20 -10 -11 -20 -20 -20 -20 -20 -20 -20 -20 -19 -20 -20 -20 -20 -20 -20 -20 -20 -20
20 28 14 12 15 -13 -20 -20 -20 -1 -20 -20 -20 -20 -20 -20 -20 -20 -20 3 -20 -20 16 13 -19 -20 -20 -20 -20 -20 -20 -20 -20 -20 -20 -17 -20 -20 -20 -20 -20 -20 -20 -20
15 6 20 17 18 4 -20 -20 -20 0 18 -20 5 -20 -20 -20 -20 -20 -20 -20 -20 -10 -16 -20 -20 -0 -20 -20 -20 -20 -20 -20 -20 -20 -20 -20 -20 -20 -20 -20 -20 -20 -20 -20
15 24 26 15 19 14 -17 -18 -15 -20 3 9 -20 -20 -20 -20 -20 -20 -20 -20 -20 -20 -20 -7 -20 -1 -18 -20 -20 -20 -20 -20 -20 -20 -20 -20 -20 -20 -20 -20 -20 -20 -20 -20
19 32 32 21 32 19 4 -19 -20 -20 -20 -20 -20 -20 -20 -20 -20 -20 -20 8 -20 1 -20 -20 -20 -14 -18 -20 -20 -20 -20 -20 -20 -20 -20 -20 -20 -20 -20 -20 -20 -20 -20 -20
31 22 26 25 27 14 10 13 1 -20 -5 -13 -20 -20 -20 -20 -20 -20 -20 6 -6 16 8 -7 -20 -20 -20 -20 -20 -20 -20 -20 -20 -20 -20 -20 -20 -20 -20 -20 -20 -20 -20 -20
34 32 37 39 31 25 22 25 23 -18 -20 -20 -20 -20 -20 -20 -20 -20 -20 -20 -4 19 25 21 16 -20 -20 -20 -20 -20 -20 -20 -20 -20 -20 -20 -20 -20 -20 -20 -20 -20 -20 20
39 39 40 33 29 -14 -20 -20 -20 -20 -20 -18 -20 -20 -20 -20 -20 -20 -20 -20 -16 10 5 29 36 1 -12 1 -10 -20 -20 -20 -20 -20 -20 -20 -20 -20 -20 -20 -20 -20 -20 -20
38 38 37 32 21 -6 -6 -20 -20 -20 -20 -20 -20 -20 -20 -20 -20 -20 -20 -20 -20 -20 -20 -20 -7 17 -10 8 -20 -20 -20 -20 -20 -20 -20 -20 -20 -20 -20 -20 -20 -20 -20 -20
39 40 38 34 33 26 6 -20 -20 -20 -20 -20 -20 -20 -20 -20 -20 -20 -20 -20 -20 -20 -20 -20 -20 -20 -16 -20 -20 -20 -20 -20 -20 -20 -20 -20 -20 -20 -20 -20 -20 -20 -20 -20
39 37 36 37 33 26 12 -12 -20 -20 -20 -20 -20 -20 -20 -20 -20 -20 -20 -20 -20 -20 -20 -20 -20 -20 -20 -20 -20 -20 -20 -20 -20 -20 -20 -9 -19 -20 -20 -20 -20 -20 -20 -20
31 28 17 28 17 -13 -14 -14 -19 -20 -20 -20 -20 -20 -20 -20 -20 -20 -20 -9 11 -20 -20 -20 -20 -20 -20 -20 -20 -20 -20 -20 -20 -20 -20 -20 -20 -20 -20 -20 -20 -20 -20 -20
-16 -6 13 27 26 13 6 -2 -19 -20 -20 -20 -20 -20 -20 -20 -20 -20 -7 -17 -11 -20 -20 -20 -20 -20 -20 -20 -20 -20 -20 -20 -20 -20 -20 -20 -20 -20 -20 -20 -20 -20 -20 -20
-20 -2 11 -10 11 3 -14 -20 -20 -20 -20 -20 -20 -20 -20 -20 -20 -20 -16 -2 -19 -20 -20 -20 -20 -20 -20 -20 -20 -20 -20 -20 -20 -20 -20 -20 -20 -20 -17 -19 -20 -20 -20 -20
18 12 13 -7 8 -20 -20 -20 -20 -20 -20 -20 -20 -20 -20 -20 -20 -12 11 -20 -20 -20 -20 -20 -20 -19 -20 -18 -20 -20 -20 -20 -20 -20 -20 -20 -20 -20 -20 -20 -20 -20 -20 -20
10 4 -5 -20 -20 -20 -20 -20 -20 -20 -20 -20 -20 -20 -20 -20 -20 -20 -20 -16 -20 -20 -20 -20 1 9 -5 -20 -20 -20 -20 -20 -20 -20 -20 -20 -20 -20 -20 -20 -20 -20 -20 -20
-20 -19 -17 -20 -20 -20 -20 -20 -20 -20 -20 -20 -20 -20 -20 -20 -20 3 -16 -20 -20 -20 -19 14 10 3 -20 -20 -20 -20 -20 -20 -20 -20 -20 -20 -20 -20 -20 -20 -20 -20 -20 -20
-20 -20 -20 -20 -20 -20 -20 -20 -20 -16 -0 -20 -20 -19 -20 -20 -20 -20 -20 -20 -20 -20 8 12 4 -20 -20 -20 -20 -20 -20 -20 -20 -20 -20 -20 -20 -20 -20 -20 -20 -20 -20 -20

GFSNW_prec_radar_264.txt.gz
Reflectivity
-7 11 -20 12 15 22 28 28 38 21 13 28 14 5 -20 -20 -20 -20 -20 -20 -20 -20 -20 -20 -20 -20 -20 -20 -20 -20 -20 -20 -20 -20 -20 -20 -20 -20 -20 -20 -20 -20 -20 -20
3 13 -19 8 6 24 29 25 29 21 1 23 17 -5 -20 -0 -20 -20 -20 -20 -20 -20 -20 -20 -20 -20 -20 -20 -20 -20 -20 -20 -20 -20 -20 -20 -20 -20 -20 -20 -20 -20 -20 -20
-10 13 -20 -3 25 24 10 31 21 35 23 2 4 7 2 -10 -17 -20 -20 -20 -20 -20 -20 -20 -20 -20 -20 -20 -20 -20 -20 -20 -20 -20 -20 -20 -20 -20 -20 -20 -20 -20 -20 -20
-19 9 1 14 8 22 14 17 35 37 36 25 7 5 9 -4 -19 -20 -20 -20 -20 -20 -20 -20 -20 -20 -20 -20 -20 -20 -20 -20 -20 -20 -20 -20 -20 -20 -20 -20 -20 -20 -20 -20
7 -9 4 9 31 30 32 36 -8 29 -20 1 3 12 -20 -20 -20 -20 -20 -20 -20 -20 -20 -20 -20 -20 -20 -20 -20 -20 -20 -20 -20 -20 -20 -20 -20 -20 -20 -20 -20 -20 -20 -20
9 13 28 1 26 25 35 18 6 -15 14 -8 -6 -6 -15 -20 -20 -20 -20 -20 -20 -20 -20 -20 -16 -20 -20 -20 -20 -20 -20 -20 -11 -20 -20 -20 -20 -20 -20 -20 -20 -20 -20 -20
12 14 -5 27 21 25 25 15 8 -9 26 -11 -20 -20 -20 -20 -20 -20 -20 -20 -20 -20 -20 -20 -20 -20 -20 -20 -20 -4 -18 -20 -19 -12 -20 -20 -20 -20 -20 -20 -20 -20 -20 -20
8 16 8 10 23 29 7 -17 14 32 7 -20 -20 -20 -20 -20 -20 -20 -20 -20 -20 -20 -20 -20 -20 -20 -20 -20 -20 -20 -20 -17 -9 -19 -20 -20 -20 -20 -20 -20 -20 -20 -20 -20
10 12 21 -10 -20 -20 -20 -20 -19 16 -4 -10 -20 -20 -20 -20 -20 -20 -20 -20 -20 -20 -20 -20 -20 -20 -20 -20 -20 -20 -20 -20 -13 -18 -20 -20 -20 -20 -20 -20 -20 -20 -20 -20
14 -4 27 8 -20 -20 -20 -20 -20 -20 -20 -20 -20 -20 -20 -20 -20 -20 -20 -20 -20 -15 -2 19 -15 -20 -20 -20 -20 -20 -20 -20 -20 -20 -20 -18 -20 -20 -20 -20 -20 -20 -20 -20
36 31 19 8 -16 -20 -20 -20 -20 -20 -20 -20 -20 -20 -20 -20 -20 -20 -20 -20 -20 -20 -15 5 15 -4 -20 -20 -20 -20 -17 -20 -20 -20 -20 -17 -20 -20 -20 -20 -20 -20 -20 -20
38 29 24 23 12 10 -20 -20 -20 -20 -20 -20 -20 -20 -20 -20 -20 -20 -20 -20 -20 -20 -20 -20 -19 -20 -20 -20 -20 -20 -20 -20 -20 -20 -20 -20 -20 -20 -20 -20 -20 -20 -20 -20
39 30 28 21 -20 -20 -20 -20 -20 -20 -20 -16 -20 -20 -20 -20 -20 -20 -20 -20 -20 -20 -20 -20 -20 -20 -20 -20 -20 -20 -20 -20 -20 -20 -20 -20 -20 -20 -20 -20 -20 -20 -20 -20
29 34 28 37 15 -4 -19 -20 -20 -20 -20 24 18 -20 -20 -20 -20 -20 -20 -20 -20 -20 -20 -18 -20 -20 -20 -20 -20 -20 -20 -20 -20 -20 -20 -20 -20 -20 -20 -20 -20 -20 -20 -20
15 32 21 25 25 18 12 -20 -20 -20 -17 -2 -9 -20 -20 -20 -20 -20 -20 -20 -20 -20 -19 -20 -19 -20 -20 -20 -20 -20 -20 -20 -20 -20 -20 -20 -20 -20 -20 -20 -20 -20 -20 -20
13 30 36 37 24 18 28 22 5 -19 -20 -20 -14 -13 -20 -20 -20 -20 -20 -20 -20 -20 -20 -7 -20 -20 -15 -19 -20 -20 -20 -20 -20 -20 -20 -20 -20 -20 -20 -20 -20 -20 -20 -20
33 33 23 21 29 26 13 21 8 -20 -20 -20 -20 -20 -20 -20 -20 -20 -20 -20 -20 -20 -10 22 -0 -8 23 25 -20 -20 -20 -20 -20 -20 -20 -20 -20 -20 -20 -20 -20 -20 -20 -20
24 27 21 30 40 34 18 9 -20 -17 -15 -20 -20 -20 -20 -20 -20 -20 -20 -20 -20 -20 -20 -20 -20 -9 -7 12 -20 -20 -20 -20 -20 -20 -20 -20 -20 -20 -20 -20 -20 -20 -20 -20
32 36 36 39 41 36 31 6 -2 5 1 -20 -20 -20 -20 -20 -20 -20 -20 -20 -20 -20 -20 -20 -20 -20 -20 -19 -20 -20 -20 -20 -20 -20 -20 -20 -20 -20 -20 -20 -20 -20 -20 -20
36 34 36 31 37 30 30 27 19 8 -7 -20 -20 -20 -20 -20 -20 -20 -18 -20 -20 -20 -20 -20 -20 -20 -20 -20 -20 -20 -20 -20 -20 -20 -20 -20 -20 -20 -20 -20 -20 -20 -20 -20
32 36 33 38 39 38 38 23 12 -11 -20 -20 -20 -20 -20 -20 -20 -20 -20 -15 -20 -20 -20 -20 -20 -20 -20 -20 -20 -20 -20 -20 -20 -20 -20 -20 -20 -20 -20 -20 -20 -20 -20 -20
35 38 32 33 36 24 24 17 -0 -20 -20 -20 -20 -20 -20 -20 -20 -20 -20 -20 -6 -19 -20 -20 -20 -20 -20 -20 -20 -20 -20 -20 -20 -20 -20 -20 -20 -20 -20 -20 -20 -20 -20 -20
10 16 30 24 24 20 11 2 -20 -20 -20 -2 -20 -20 -20 -20 -20 -20 -17 -20 -18 -20 -20 -20 -20 -20 -20 -20 -20 -20 -20 -20 -20 -20 -20 -20 -20 -20 -20 -20 -20 -20 -20 -20
22 20 19 16 11 6 -12 -20 -20 -20 -20 -20 -20 -20 -20 -20 -20 -20 -20 -20 -20 -20 -15 -20 -20 -20 -20 -20 -20 -20 -20 -20 -20 -20 -20 -20 -20 -20 -20 -20 -20 -20 -20 -20
12 11 14 6 -4 -19 -20 -20 -20 -20 -4 3 -7 -10 -20 -20 -20 -20 -20 -13 -20 -20 -20 -20 -20 -20 -20 -20 -20 -20 -20 -20 -20 -20 -20 -20 -20 -20 -20 -20 -20 -20 -20 -20
-5 -20 -20 -20 -20 -20 -20 -20 -20 -20 -20 -20 -20 -20 -20 -20 -20 -18 -20 -20 -20 -20 -20 -20 -20 -10 13 7 -16 -20 -20 -20 -20 -20 -20 -20 -20 -20 -20 -20 -20 -20 -20 -20
-20 -20 -20 -20 -20 -20 -20 -20 -20 -20 -20 -20 -20 -20 -20 -20 -20 -20 -20 -20 -20 -20 -20 -20 -20 3 -20 -19 -20 -20 -20 -20 -20 -20 -20 -20 -16 -20 -20 -20 -20 -20 -20 -20